Location: H�rden
(51.6679°N, 10.2831°E)
Time: 00:01:18
(UTC+00:00)

Daily predictions for brighter satellites

Satellite Brightness Start Highest point End
(mag) Time Altitude Azimuth Time Altitude Azimuth Time Altitude Azimuth
Cosmos 2344 4.5 02:24:42 42° E 02:24:42 42° E 02:30:22 10° NE
Cosmos 2369 Rocket 4.2 02:52:23 22° ESE 02:53:10 22° ESE 02:57:24 10° NE
USA 215 3.8 02:54:26 10° E 02:59:30 52° ENE 02:59:30 52° ENE
Cosmos 1943 Rocket 3.5 03:12:50 35° NE 03:12:50 35° NE 03:16:07 10° NE
CZ-2C R/B 4.3 03:09:44 10° ESE 03:14:23 30° ENE 03:16:08 25° NNE
Tsikada Rocket 4.2 03:31:33 68° ESE 03:31:49 69° E 03:38:06 10° NNE
MOS 1-B Rocket 4.1 03:36:16 10° SSE 03:42:14 66° ENE 03:43:22 54° NNE
Cosmos 2297 4.3 03:44:28 51° NNE 03:44:28 51° NNE 03:48:41 10° NNE
CENTAUR R/B 2.5 03:44:24 85° N 03:44:24 85° N 03:51:39 10° NE
Cosmos 2278 Rocket 4.0 03:51:48 19° N 03:51:48 19° N 03:53:52 10° NNE
Cosmos 1151 Rocket 4.5 04:05:31 30° SSE 04:05:31 30° SSE 04:07:47 10° SSE
NOSS 3-2 (A) 3.5 04:04:16 62° NNW 04:04:16 62° NNW 04:10:54 10° NE
Cosmos 1486 Rocket 4.3 04:03:40 35° S 04:05:50 65° ESE 04:11:05 10° NNE
Meteor 2-6 Rocket 4.2 04:05:32 41° N 04:07:29 74° ENE 04:12:52 10° SSE
H-2A R/B 4.4 04:05:50 10° ESE 04:09:05 21° ENE 04:12:24 10° N
DNEPR-1 R/B 4.4 04:11:35 50° S 04:11:35 50° S 04:16:00 10° SSE
Lacrosse 4 Rocket 4.0 04:10:15 13° N 04:10:57 13° NNE 04:13:05 10° NE
NOSS 3-2 (C) 3.2 04:12:49 67° WSW 04:13:38 79° NW 04:20:24 10° NE
Cosmos 1833 4.1 04:15:45 69° NW 04:16:25 80° WSW 04:22:09 10° SSE
Okean 3 Rocket 4.2 04:14:24 10° S 04:18:51 59° E 04:23:20 10° NNE
Meteor 2-3 Rocket 4.0 04:20:24 51° NNW 04:20:24 51° NNW 04:25:08 10° N
SL-27 R/B 3.5 04:21:23 45° E 04:21:23 45° E 04:24:20 10° SE
BREEZE-M DEB (TANK) 4.3 04:21:03 30° SSW 04:21:31 31° SSW 04:30:49 10° SE
Cosmos 1766 Rocket 3.7 04:17:37 10° S 04:21:55 69° E 04:26:14 10° NNE
Envisat 3.4 04:17:36 10° NNE 04:22:41 64° ESE 04:27:43 10° S
Cosmos 1328 Rocket 3.4 04:25:33 86° SSE 04:25:33 86° SSE 04:29:49 10° S
Cosmos 968 Rocket 3.6 04:27:18 54° NNW 04:27:18 54° NNW 04:31:45 10° NNE
Cosmos 2297 Rocket 3.8 04:25:42 15° N 04:29:27 28° NE 04:34:17 10° E
Cosmos 2263 4.3 04:24:35 13° SSW 04:29:45 78° ESE 04:35:33 10° NNE
Meteor 1-10 Rocket 4.1 04:30:29 17° NNW 04:34:57 89° E 04:40:30 10° SSE
Cosmos 2098 Rocket 3.1 04:32:19 23° SSW 04:35:03 78° WNW 04:40:34 10° N
Cosmos 1607 4.5 04:32:53 28° NNW 04:36:07 54° NE 04:42:11 10° ESE
Cosmos 2142 Rocket 4.4 04:30:09 10° NNW 04:36:29 70° W 04:42:49 10° S
Cosmos 2369 Rocket 2.0 04:34:16 36° SW 04:36:37 74° WNW 04:42:16 10° NNE
Cosmos 2344 3.7 04:34:44 39° W 04:37:16 55° NNW 04:45:33 10° NE
FALCON 9 DEB 3.5 04:40:34 58° ENE 04:40:34 58° ENE 04:43:24 10° ENE
SL-19 R/B 4.4 04:34:52 10° S 04:40:16 51° WSW 04:41:27 44° WNW
Cosmos 2279 Rocket 3.9 04:34:42 10° NNW 04:40:52 68° W 04:47:00 10° S
USA 238 DEB 3.7 04:39:33 40° W 04:41:48 59° NW 04:48:45 10° NE
USA 238 3.7 04:39:38 40° W 04:41:54 59° NW 04:48:51 10° NE
Cosmos 1656 Rocket 3.5 04:37:56 16° SSW 04:42:21 87° WNW 04:47:51 10° NNE
COSMO-SKYMED 1 2.5 04:38:28 10° S 04:42:46 61° WSW 04:42:51 61° W
H-2A R/B 2.8 04:39:09 10° NNE 04:46:53 - SSW 04:42:13 58° N
Meteor 1-31 Rocket 2.9 04:39:32 10° NNE 04:43:27 75° ESE 04:47:21 10° S
USA 215 3.2 04:37:22 10° SE 04:43:54 73° SSW 04:46:50 35° WNW
Alouette 2 Rocket 4.4 04:43:05 14° N 04:46:08 40° ENE 04:49:31 10° SE
Cosmos 2263 Rocket 4.4 04:47:52 10° N 04:50:34 13° NNE 04:53:17 10° NE
CBERS 1 LM4 rocket 4.4 04:46:42 10° NNE 04:51:36 88° ESE 04:56:38 10° SSW
CZ-4B R/B 4.0 04:47:58 10° NNE 04:52:27 87° WNW 04:56:56 10° SSW
IRAS Rocket 4.3 04:47:54 10° SSE 04:53:24 79° ENE 04:58:55 10° NNW
CZ-4B R/B 3.8 04:51:32 10° ESE 04:54:03 21° ENE 04:56:33 10° NNE
Nadezhda 4 Rocket 4.4 04:48:04 10° S 04:54:08 65° E 05:00:21 10° NNE
Cosmos 1408 Rocket 3.7 04:50:07 10° S 04:54:23 71° E 04:58:42 10° NNE
CZ-2C R/B 2.7 04:49:07 10° S 04:54:26 54° W 04:57:37 23° NNW
Cosmos 1943 Rocket 2.8 04:54:23 33° NW 04:54:39 33° NW 04:59:45 10° NNE
Kosmos-917 4.0 04:57:03 50° WNW 04:57:36 57° NNW 05:03:56 10° NE
Cosmos 1354 Rocket 4.0 04:55:29 10° SSW 05:00:46 89° ESE 05:06:08 10° NNE
Meteor 2-15 4.3 04:56:08 10° NNW 05:02:11 68° W 05:08:10 10° S
Cosmos 2228 Rocket 4.0 04:58:26 10° N 05:02:49 49° ENE 05:07:13 10° SSE
Gblst 52 Del rocket 4.5 04:59:59 31° W 05:03:11 90° ENE 05:10:14 10° E
Cosmos 1743 Rocket 4.5 04:59:59 10° S 05:04:12 50° E 05:08:26 10° NNE
Cosmos 2227 Rocket 3.6 05:00:32 11° NNW 05:05:28 34° NE 05:10:34 10° ESE
Cosmos 1862 3.6 05:07:19 42° WNW 05:07:19 42° WNW 05:11:02 10° N
Cosmos 1515 Rocket 3.5 05:06:34 21° NNW 05:09:24 60° W 05:13:40 10° S
Landsat 5 3.9 05:06:26 10° S 05:10:43 43° W 05:12:33 29° NW
ADEOS 3.6 05:06:27 10° NNE 05:11:43 83° ESE 05:16:57 10° SSW
SJ 16-02 1.8 05:09:26 10° S 05:13:44 61° ESE 05:18:05 10° NNE
BREEZE-M DEB (TANK) 3.5 05:16:52 29° WSW 05:18:33 70° S 05:27:19 10° E
Meteor 2-19 Rocket 4.3 05:14:27 10° SSW 05:20:31 80° WNW 05:26:37 10° N
NOAA 11 4.2 05:17:46 10° NNE 05:23:17 87° WNW 05:28:46 10° SSW
Cosmos 1538 Rocket 3.9 05:20:40 14° NNW 05:25:18 80° WSW 05:30:29 10° SSE
COSMOS 2487 2.2 05:23:41 26° NNW 05:25:27 75° WSW 05:28:46 10° SSE
CZ-4C R/B 3.7 05:24:00 10° SSW 05:26:28 28° WSW 05:26:28 28° WSW
CZ-2C R/B 2.9 05:25:59 10° NNE 05:30:53 88° ESE 05:35:58 10° SSW
Cosmos 1500 Rocket 3.5 05:27:27 10° SSW 05:31:56 84° WNW 05:36:26 10° N
OPS 6432 4.1 05:31:52 28° NW 05:33:18 84° NE 05:36:34 10° SE
SMAP 3.9 05:29:06 10° NNE 05:33:42 55° E 05:38:15 10° S
GENESIS II 4.2 05:31:41 21° NW 05:34:16 81° NE 05:38:15 10° SE
Cosmos 2278 Rocket 4.1 05:33:39 11° NNW 05:35:04 12° NNW 05:37:21 10° N
CENTAUR R/B 3.4 05:31:36 20° WNW 05:35:52 39° NNW 05:43:09 10° NE
Sich 1 3.8 05:33:55 10° S 05:38:05 55° E 05:42:17 10° NNE
FALCON 9 DEB 2.7 05:37:32 30° WNW 05:38:47 70° N 05:41:41 10° E
CZ-4B R/B 2.4 05:35:17 10° NNE 05:38:52 80° WNW 05:42:27 10° SSW
H-2A R/B 3.7 05:34:34 10° NNE 05:39:03 34° E 05:43:32 10° SSE
Meteor 1-27 Rocket 4.0 05:34:55 10° NNW 05:40:18 47° W 05:45:46 10° SSW
Cosmos 2219 3.9 05:35:03 10° NNW 05:40:35 52° NE 05:46:07 10° SE
Cosmos 1503 Rocket 4.4 05:36:03 10° SW 05:41:05 43° NW 05:46:12 10° NNE
Cosmos 1707 Rocket 4.2 05:36:54 10° N 05:41:17 58° ENE 05:45:41 10° SSE
FALCON 9 DEB 2.6 05:40:01 28° WNW 05:41:21 79° NNE 05:44:11 10° E
FALCON 9 DEB 2.5 05:40:11 28° WNW 05:41:31 83° NNE 05:44:22 10° ESE
ATLAS 5 CENTAUR R/B 1.6 05:37:48 10° SW 05:41:41 72° SE 05:46:10 10° NE
Meteor PRIRODA 3.5 05:40:07 10° N 05:43:43 62° WNW 05:47:17 10° SSW
Cosmos 1805 Rocket 3.7 05:39:42 10° S 05:44:06 79° E 05:48:28 10° NNE
H-2A R/B 2.1 05:40:25 10° S 05:44:40 59° WSW 05:49:02 10° NNW
Cosmos 1500 3.9 05:42:09 10° S 05:45:53 55° E 05:49:37 10° NNE
Cosmos 1680 Rocket 4.1 05:40:48 10° NNW 05:46:05 60° ENE 05:51:17 10° SE
USA 32 4.0 05:42:27 10° NNW 05:47:39 64° W 05:52:50 10° S
Cosmos 1777 Rocket 3.9 05:43:06 10° SSW 05:48:18 69° WNW 05:53:35 10° NNE
FAST Rocket 4.3 05:48:04 10° SSW 05:50:43 52° WNW 05:54:20 10° N
Lacrosse 4 Rocket 2.8 05:46:43 10° NNW 05:50:52 37° NE 05:55:03 10° ESE
Cosmos 1515 4.0 05:49:03 10° NNW 05:52:42 45° W 05:56:20 10° SSW
SL-27 R/B 4.2 05:54:53 15° W 05:55:29 16° W 05:57:40 10° SW
Cosmos 1340 Rocket 3.0 05:52:36 10° SSW 05:56:28 49° WNW 06:00:24 10° N
Okean O Rocket 4.0 05:53:08 10° NE 05:56:56 27° E 06:00:41 10° SSE
Cosmos 2026 Rocket 4.0 05:53:40 10° S 06:00:01 88° W 06:06:19 10° N
Cosmos 923 Rocket 4.1 05:55:10 10° NNW 06:00:33 87° WSW 06:05:55 10° SSE
Envisat 4.0 05:57:18 10° N 06:01:19 24° WNW 06:05:19 10° WSW
NOAA 6 4.1 05:57:18 10° NNE 06:02:27 86° ESE 06:07:35 10° SSW
Cosmos 2195 Rocket 4.4 05:57:57 10° SSW 06:04:03 72° WNW 06:10:11 10° N
ATLAS 3B R/B 2.8 05:58:46 10° SW 06:05:21 85° SE 06:12:20 10° NE
NOSS 3-2 (C) 4.3 06:00:17 12° W 06:05:31 35° NNW 06:12:03 10° NE
FALCON 9 DEB 2.6 06:03:14 15° WNW 06:05:31 82° NNE 06:08:25 10° ESE
Cosmos 1553 Rocket 4.0 06:01:14 10° N 06:07:21 85° E 06:13:27 10° S
Meteor 1-25 Rocket 4.2 06:05:55 10° SSW 06:11:30 68° WNW 06:17:04 10° N
Cosmos 1939 Rocket 3.0 06:08:49 10° N 06:12:38 49° WNW 06:16:23 10° SW
Cosmos 2297 Rocket 2.2 06:08:24 10° NNW 06:14:06 76° WSW 06:19:45 10° SSE
Cosmos 1809 Rocket 4.4 06:08:23 10° SSW 06:14:31 69° WNW 06:20:40 10° N
PSLV R/B 4.0 06:10:48 10° S 06:14:49 60° WSW 06:18:55 10° NNW
Cosmos 1666 3.1 06:11:20 10° S 06:15:05 65° E 06:18:50 10° NNE
EO 1 Delta rocket 4.4 06:10:01 10° N 06:16:43 73° WNW 06:21:59 10° SSW
FALCON 9 DEB 3.1 06:13:36 11° WNW 06:16:53 75° N 06:20:18 10° E
Meteor 1-31 Rocket 4.4 06:15:08 10° NNW 06:17:19 15° WNW 06:19:30 10° W
Cosmos 1174 3.5 06:15:43 10° WSW 06:18:37 45° NW 06:21:50 10° NNE
Cosmos 2369 Rocket 3.4 06:17:25 10° W 06:21:38 21° NW 06:25:54 10° NNE
Cosmos 1607 4.4 06:17:26 10° NW 06:23:19 44° WSW 06:29:06 10° S
CZ-4B R/B 2.2 06:22:54 10° SSW 06:25:53 31° W 06:28:51 10° NNW
Cosmos 1633 Rocket 3.2 06:21:44 10° S 06:26:04 78° E 06:30:26 10° NNE
USA 215 4.5 06:22:20 10° S 06:27:40 26° SW 06:33:01 10° WNW
SL-4 R/B 4.1 06:24:56 10° SSW 06:28:01 27° SE 06:31:20 10° E
Okean 1 4.0 06:24:43 10° NNW 06:28:20 34° W 06:31:55 10° SSW
Cosmos 2112 Rocket 4.1 06:23:28 10° NNW 06:28:49 79° WSW 06:34:06 10° SSE
